Dunkirk, NY

1:28 PM EST on February 27, 2017 (GMT -0500)
Chautauqua County-Dunkirk

Weather History for KDKK - October, 2011

Change the Weather History Date:

Tuesday, October 18, 2011

  Actual Average Record
Temperature  
Mean Temperature 52 °F -  
Max Temperature 60 °F 58 °F 80 °F (1968)
Min Temperature 45 °F 43 °F 27 °F (1972)
Degree Days  
Heating Degree Days 12    
Growing Degree Days 2 (Base 50)    
Moisture  
Dew Point 40 °F    
Average Humidity 65    
Maximum Humidity 86    
Minimum Humidity 46    
Precipitation  
Precipitation 0.01 in - - ()
Sea Level Pressure  
Sea Level Pressure 29.81 in    
Wind  
Wind Speed 8 mph (WSW)    
Max Wind Speed 14 mph    
Max Gust Speed 18 mph    
Visibility 10 miles    
Events Rain    
Averages and records for this station are not official NWS values.
T = Trace of Precipitation, MM = Missing Value Source: NWS Daily Summary

Daily Weather History Graph

Daily Weather History Graph

Search for Another Location

Airport or City:

Trip Planner

Search our weather history database for the weather conditions in past years. The results will help you decide how hot, cold, wet, or windy it might be!

Date:

Astronomy

Oct. 18, 2011 Rise Set
Actual Time 7:33 AM EDT 6:30 PM EDT
Civil Twilight 7:04 AM EDT 6:59 PM EDT
Nautical Twilight 6:32 AM EDT 7:31 PM EDT
Astronomical Twilight 5:59 AM EDT 8:04 PM EDT
Moon 11:05 PM EDT (10/18) 1:27 PM EDT (10/18)
Length of Visible Light 11h 54m
Length of Day
10h 57m
Waning Gibbous, 65% of the Moon is Illuminated
Oct 18
Waning Gibbous
Oct 19
Last Quarter
Oct 26
New
Nov 2
First Quarter
Nov 10
Full

Hourly Weather History & Observations

Time (EDT) Temp. Windchill Dew Point Humidity Pressure Visibility Wind Dir Wind Speed Gust Speed Precip Events Conditions
12:53 AM 53.1 °F - 36.0 °F 52% 29.77 in 10.0 mi West 11.5 mph 18.4 mph N/A   Clear
1:53 AM 53.1 °F - 36.0 °F 52% 29.77 in 10.0 mi West 9.2 mph 17.3 mph N/A   Clear
2:53 AM 52.0 °F - 36.0 °F 54% 29.77 in 10.0 mi West 6.9 mph - N/A   Partly Cloudy
3:53 AM 46.0 °F 43.9 °F 37.9 °F 73% 29.76 in 10.0 mi South 4.6 mph - N/A   Clear
4:53 AM 45.0 °F 41.2 °F 37.0 °F 74% 29.77 in 10.0 mi SSW 6.9 mph - N/A   Clear
5:53 AM 46.0 °F 41.9 °F 37.0 °F 71% 29.78 in 10.0 mi SSW 8.1 mph - N/A   Clear
6:53 AM 46.0 °F 41.9 °F 37.0 °F 71% 29.78 in 10.0 mi SSW 8.1 mph - N/A   Clear
7:53 AM 46.0 °F 41.9 °F 37.0 °F 71% 29.79 in 10.0 mi SSW 8.1 mph - N/A   Clear
8:53 AM 48.9 °F - 37.9 °F 66% 29.82 in 10.0 mi SSW 9.2 mph - N/A   Clear
9:53 AM 52.0 °F - 39.9 °F 63% 29.83 in 10.0 mi SSW 5.8 mph - N/A   Clear
10:53 AM 55.9 °F - 41.0 °F 57% 29.83 in 10.0 mi WSW 8.1 mph - N/A   Clear
11:53 AM 57.9 °F - 41.0 °F 53% 29.83 in 10.0 mi WSW 13.8 mph - N/A   Partly Cloudy
12:53 PM 60.1 °F - 39.0 °F 46% 29.82 in 10.0 mi WNW 12.7 mph 18.4 mph N/A   Clear
1:53 PM 57.9 °F - 39.9 °F 51% 29.82 in 10.0 mi West 10.4 mph - N/A   Clear
2:53 PM 55.9 °F - 39.9 °F 55% 29.82 in 10.0 mi West 5.8 mph - N/A   Mostly Cloudy
3:53 PM 55.9 °F - 39.9 °F 55% 29.83 in 10.0 mi West 4.6 mph - N/A   Overcast
4:53 PM 55.9 °F - 42.1 °F 60% 29.83 in 10.0 mi West 3.5 mph - N/A   Mostly Cloudy
5:53 PM 54.0 °F - 44.1 °F 69% 29.82 in 10.0 mi Calm Calm - N/A   Overcast
6:53 PM 54.0 °F - 42.1 °F 64% 29.90 in 10.0 mi West 4.6 mph - N/A   Overcast
7:53 PM 50.0 °F - 44.1 °F 80% 29.83 in 10.0 mi Calm Calm - 0.00 in   Clear
9:53 PM 48.9 °F - 44.1 °F 83% 29.83 in 10.0 mi NE 3.5 mph - N/A   Overcast
10:53 PM 48.9 °F - 45.0 °F 86% 29.82 in 10.0 mi East 8.1 mph - 0.01 in Rain Light Rain
11:53 PM 48.9 °F - 44.1 °F 83% 29.81 in 10.0 mi NNE 4.6 mph - 0.00 in   Overcast